DW7076 Floda SE current weather conditions

sailwx.info

Wind from 121 at 0 knots gusting 6

Air temperature 9.4° C
Dewpoint 8.2° C

Last reported at 2014-Oct-22 02:56 UTC.
Time now 2014-Oct-22 03:19 UTC

Location: N 57°49' E 012°21'.
View on Google Maps.

See reports from other nearby stations

  
Tides and Currents Weather Stations Pressure Air Temp Water Temp Dewpoint Dewpoint Depression Visibility Wind Speed Wind Dir Waves Ship Positions
date/time (UTC)wind fromknots sea level pressurealtimeterstation pressurevisibilityair tempwater tempwave heightnotes
2014-Oct-22 02:56 121 0 gusting 6 9.4
2014-Oct-22 02:46 128 0 gusting 4 9.4
2014-Oct-22 02:36 100 1 gusting 4 9.4
2014-Oct-22 02:26 058 1 gusting 5 9.4
2014-Oct-22 02:16 105 1 gusting 2 9.4
2014-Oct-22 02:06 094 0 gusting 6 9.4
2014-Oct-22 01:56 055 2 gusting 6 9.4
2014-Oct-22 01:46 096 1 gusting 7 9.4
2014-Oct-22 01:36 102 2 gusting 4 9.4
2014-Oct-22 01:26 107 0 gusting 2 9.4
2014-Oct-22 01:16 108 1 gusting 6 9.4
2014-Oct-22 01:06 115 1 gusting 2 9.4
2014-Oct-22 00:56 100 2 gusting 6 9.4
2014-Oct-22 00:46 113 2 gusting 8 9.4
2014-Oct-22 00:36 094 1 gusting 7 9.4
2014-Oct-22 00:26 112 2 gusting 7 9.4
2014-Oct-22 00:16 094 1 gusting 10 9.4
2014-Oct-22 00:06 114 1 gusting 5 9.4
2014-Oct-21 23:56 109 2 gusting 6 9.4
2014-Oct-21 23:46 112 1 gusting 7 9.4
2014-Oct-21 23:36 109 3 gusting 7 9.4
2014-Oct-21 23:26 096 2 gusting 6 9.4
2014-Oct-21 23:16 083 1 gusting 7 9.4
2014-Oct-21 23:06 109 2 gusting 6 10.0
2014-Oct-21 22:56 103 0 gusting 2 10.0
2014-Oct-21 22:46 105 2 gusting 2 10.0
2014-Oct-21 22:36 111 2 gusting 6 10.0
2014-Oct-21 22:26 134 1 gusting 4 10.0
2014-Oct-21 22:16 082 1 gusting 5 10.0
2014-Oct-21 22:06 113 1 gusting 4 10.0
2014-Oct-21 21:56 126 1 gusting 2 10.0
2014-Oct-21 21:46 109 0 gusting 5 9.4
2014-Oct-21 21:36 123 1 gusting 5 9.4
2014-Oct-21 21:26 126 0 gusting 7 9.4
2014-Oct-21 21:16 087 1 gusting 2 9.4
2014-Oct-21 21:06 012 1 gusting 7 9.4
2014-Oct-21 20:56 111 0 gusting 2 9.4
2014-Oct-21 20:46 102 1 gusting 4 9.4
2014-Oct-21 20:36 081 1 gusting 4 10.0
2014-Oct-21 20:26 098 0 gusting 2 10.0
2014-Oct-21 20:16 082 1 gusting 2 10.0
2014-Oct-21 20:06 104 1 gusting 6 10.0
2014-Oct-21 19:56 101 1 gusting 2 10.0
2014-Oct-21 19:46 098 2 gusting 7 10.0
2014-Oct-21 19:36 114 3 gusting 8 10.0
2014-Oct-21 19:26 105 1 gusting 4 10.0
2014-Oct-21 19:16 102 2 gusting 6 10.0
2014-Oct-21 19:06 102 1 gusting 6 10.0
2014-Oct-21 18:56 111 1 gusting 7 10.0
2014-Oct-21 18:46 123 2 gusting 6 10.0
2014-Oct-21 18:36 112 1 gusting 2 9.4
2014-Oct-21 18:26 097 0 gusting 2 9.4
2014-Oct-21 18:16 109 0 gusting 2 9.4
2014-Oct-21 18:06 132 1 gusting 4 9.4
2014-Oct-21 17:56 129 1 gusting 2 9.4
2014-Oct-21 17:46 109 0 gusting 6 9.4
2014-Oct-21 17:36 114 1 gusting 6 9.4
2014-Oct-21 17:26 115 1 gusting 5 9.4
2014-Oct-21 17:16 089 2 gusting 6 9.4
2014-Oct-21 17:06 056 1 gusting 2 9.4
2014-Oct-21 16:56 113 0 gusting 4 9.4
2014-Oct-21 16:46 123 1 gusting 6 10.0
2014-Oct-21 16:36 109 1 gusting 4 10.0
2014-Oct-21 16:26 128 0 gusting 5 10.0
2014-Oct-21 16:16 111 2 gusting 7 10.0
2014-Oct-21 16:06 109 2 gusting 6 10.0
2014-Oct-21 15:56 111 2 gusting 6 10.0
2014-Oct-21 15:46 108 0 gusting 5 10.6
2014-Oct-21 15:36 105 1 gusting 7 10.6
2014-Oct-21 15:26 121 2 gusting 5 10.6
2014-Oct-21 15:16 101 0 gusting 2 10.6
2014-Oct-21 15:06 093 2 gusting 6 11.1
2014-Oct-21 14:56 106 2 gusting 4 11.1
2014-Oct-21 14:36 067 0 gusting 5 11.1
2014-Oct-21 14:26 127 1 gusting 6 11.1
2014-Oct-21 14:16 111 1 gusting 5 11.1
2014-Oct-21 14:06 131 1 gusting 2 11.1
2014-Oct-21 13:56 090 1 gusting 6 11.1
2014-Oct-21 13:36 129 0 gusting 2 11.1
2014-Oct-21 13:26 126 2 gusting 6 11.1
2014-Oct-21 13:16 129 1 gusting 6 11.1
2014-Oct-21 13:06 116 0 gusting 5 11.1
2014-Oct-21 12:56 133 0 gusting 4 11.7
2014-Oct-21 12:46 123 0 gusting 8 11.7
2014-Oct-21 12:36 124 1 gusting 4 11.7
2014-Oct-21 12:26 110 1 gusting 8 11.7
2014-Oct-21 12:16 122 0 gusting 6 12.2
2014-Oct-21 12:06 127 0 gusting 5 12.2
2014-Oct-21 11:56 162 1 gusting 6 12.2
2014-Oct-21 11:46 137 0 gusting 8 12.2
2014-Oct-21 11:36 112 1 gusting 6 12.2
2014-Oct-21 11:26 111 1 gusting 6 12.2
2014-Oct-21 11:16 138 2 gusting 6 12.2
2014-Oct-21 11:06 146 2 gusting 6 12.2
2014-Oct-21 10:56 149 1 gusting 7 12.2
2014-Oct-21 10:46 134 1 gusting 6 12.2
2014-Oct-21 10:36 142 2 gusting 6 12.2
2014-Oct-21 10:26 130 0 gusting 4 12.2
2014-Oct-21 10:16 168 0 gusting 6 11.7
2014-Oct-21 10:06 153 0 gusting 6 11.7
2014-Oct-21 09:56 189 2 gusting 6 11.7
2014-Oct-21 09:46 130 2 gusting 8 11.7
2014-Oct-21 09:36 130 0 gusting 4 11.1
2014-Oct-21 09:26 145 1 gusting 6 11.1
2014-Oct-21 09:16 125 0 gusting 5 10.6
2014-Oct-21 09:06 156 1 gusting 5 10.6
2014-Oct-21 08:56 108 1 gusting 6 10.6
2014-Oct-21 08:46 126 1 gusting 5 10.6
2014-Oct-21 08:36 161 1 gusting 5 10.6
2014-Oct-21 08:26 127 0 gusting 5 10.0
2014-Oct-21 08:16 159 0 gusting 2 8.9
2014-Oct-21 08:06 127 0 gusting 2 8.9
2014-Oct-21 07:56 163 8.3
2014-Oct-21 07:46 163 7.8
2014-Oct-21 07:36 163 7.2
2014-Oct-21 07:26 163 7.2
2014-Oct-21 07:16 163 7.2
2014-Oct-21 07:06 163 7.2
2014-Oct-21 06:56 163 6.7
2014-Oct-21 06:46 163 6.7
2014-Oct-21 06:36 163 6.7
2014-Oct-21 06:26 163 7.2
2014-Oct-21 06:16 163 7.2
2014-Oct-21 06:06 163 7.2
2014-Oct-21 05:56 163 7.2
2014-Oct-21 05:46 163 7.2
2014-Oct-21 05:36 163 7.2
2014-Oct-21 05:26 163 7.2
2014-Oct-21 05:16 163 7.8
2014-Oct-21 05:06 163 7.8
2014-Oct-21 04:56 163 7.8
2014-Oct-21 04:46 163 7.8
2014-Oct-21 04:36 163 7.8
2014-Oct-21 04:26 163 7.8
2014-Oct-21 04:16 163 7.8
2014-Oct-21 04:06 163 0 gusting 2 7.8
2014-Oct-21 03:56 155 7.8
2014-Oct-21 03:46 155 7.8
2014-Oct-21 03:36 155 7.8
2014-Oct-21 03:26 155 8.3
2014-Oct-21 03:16 155 8.3
2014-Oct-21 03:06 155 8.3
2014-Oct-21 02:56 155 8.9
2014-Oct-21 02:46 155 8.9
2014-Oct-21 02:36 155 8.9
2014-Oct-21 02:26 155 9.4
2014-Oct-21 02:16 155 9.4
2014-Oct-21 02:06 155 9.4
2014-Oct-21 01:56 155 10.0
2014-Oct-21 01:46 155 10.0
2014-Oct-21 01:36 155 10.0
2014-Oct-21 01:26 155 10.6
2014-Oct-21 01:16 042 0 gusting 2 10.6
2014-Oct-21 01:06 042 10.6
2014-Oct-21 00:56 233 1 gusting 5 10.6
2014-Oct-21 00:46 194 10.6
2014-Oct-21 00:36 194 1 gusting 4 10.6
2014-Oct-21 00:26 191 0 gusting 2 10.6
2014-Oct-21 00:16 246 10.6
2014-Oct-21 00:06 246 11.1
2014-Oct-20 23:56 246 11.1
2014-Oct-20 23:46 246 0 gusting 2 11.1
2014-Oct-20 23:36 246 0 gusting 2 11.1
2014-Oct-20 23:26 246 0 gusting 2 11.1
2014-Oct-20 23:16 246 11.1
2014-Oct-20 23:06 246 0 gusting 1 11.1
2014-Oct-20 22:56 246 11.1
2014-Oct-20 22:46 246 11.1
2014-Oct-20 22:36 246 11.1
2014-Oct-20 22:26 247 11.1
2014-Oct-20 22:16 248 11.1
2014-Oct-20 22:06 250 11.1
2014-Oct-20 21:56 250 11.1
2014-Oct-20 21:46 250 0 gusting 2 11.1
2014-Oct-20 21:36 204 2 gusting 6 11.1
2014-Oct-20 21:26 270 0 gusting 5 11.1
2014-Oct-20 21:16 192 11.1
2014-Oct-20 21:06 229 1 gusting 5 11.1
2014-Oct-20 20:56 200 11.1
2014-Oct-20 20:46 200 11.1
2014-Oct-20 20:36 137 11.1
2014-Oct-20 20:26 175 0 gusting 4 11.1
2014-Oct-20 20:16 302 0 gusting 4 11.1
2014-Oct-20 20:06 272 11.1
2014-Oct-20 19:56 215 1 gusting 2 11.7
2014-Oct-20 19:46 307 1 gusting 5 11.7
2014-Oct-20 19:36 294 1 gusting 4 11.7
2014-Oct-20 19:26 121 11.7
2014-Oct-20 19:16 288 2 gusting 8 11.7
2014-Oct-20 19:06 262 0 gusting 10 11.7
2014-Oct-20 18:56 304 2 gusting 6 11.7
2014-Oct-20 18:46 288 0 gusting 7 11.7
2014-Oct-20 18:36 265 2 gusting 6 11.7
2014-Oct-20 18:26 021 1 gusting 6 11.7
2014-Oct-20 18:16 310 2 gusting 6 11.7
2014-Oct-20 18:06 316 4 gusting 8 11.7
2014-Oct-20 17:56 342 1 gusting 10 11.7
2014-Oct-20 17:46 260 1 gusting 10 11.7
2014-Oct-20 17:36 270 1 gusting 6 11.7
2014-Oct-20 17:26 005 1 gusting 10 11.7
2014-Oct-20 17:16 331 1 gusting 10 11.7
2014-Oct-20 17:06 359 5 gusting 12 11.7
2014-Oct-20 16:56 301 3 gusting 13 11.7
2014-Oct-20 16:46 327 4 gusting 8 12.2
2014-Oct-20 16:36 267 2 gusting 17 12.2
2014-Oct-20 16:26 262 1 gusting 11 12.2
2014-Oct-20 16:16 281 3 gusting 8 12.2
2014-Oct-20 16:06 203 1 gusting 13 12.2
2014-Oct-20 15:56 347 1 gusting 7 12.2
2014-Oct-20 15:46 341 2 gusting 8 12.2
2014-Oct-20 15:36 321 3 gusting 10 12.2
2014-Oct-20 15:26 310 1 gusting 7 12.2
2014-Oct-20 15:16 245 2 gusting 10 12.2
2014-Oct-20 15:06 292 2 gusting 8 12.2
2014-Oct-20 14:56 263 1 gusting 11 12.2
2014-Oct-20 14:46 292 3 gusting 8 12.2
2014-Oct-20 14:36 234 2 gusting 8 12.2
2014-Oct-20 14:26 237 0 gusting 11 12.2
2014-Oct-20 14:16 331 4 gusting 10 12.8
2014-Oct-20 14:06 004 4 gusting 6 12.8
2014-Oct-20 13:56 293 0 gusting 6 12.8
2014-Oct-20 13:46 326 3 gusting 10 12.8
2014-Oct-20 13:36 121 1 gusting 10 12.8
2014-Oct-20 13:26 293 1 gusting 11 12.8
2014-Oct-20 13:16 316 2 gusting 11 12.8
2014-Oct-20 13:06 332 2 gusting 10 12.8
2014-Oct-20 12:56 048 2 gusting 8 12.8
2014-Oct-20 12:46 238 2 gusting 10 12.8
2014-Oct-20 12:36 085 1 gusting 11 12.2
2014-Oct-20 12:26 287 3 gusting 10 12.2
2014-Oct-20 12:16 307 6 gusting 17 12.2
2014-Oct-20 12:06 209 3 gusting 11 12.2
2014-Oct-20 11:56 331 0 gusting 10 12.2
2014-Oct-20 11:46 116 2 gusting 14 12.2
2014-Oct-20 11:36 295 4 gusting 10 12.2
2014-Oct-20 11:26 334 2 gusting 10 12.2
2014-Oct-20 11:16 351 1 gusting 10 12.2
2014-Oct-20 11:06 223 1 gusting 13 12.2
2014-Oct-20 10:56 203 6 gusting 13 12.2
2014-Oct-20 10:46 357 4 gusting 13 12.2
2014-Oct-20 10:36 263 5 gusting 11 11.7
2014-Oct-20 10:26 229 3 gusting 8 11.7
2014-Oct-20 10:16 260 2 gusting 13 12.2
2014-Oct-20 10:06 292 4 gusting 11 12.2
2014-Oct-20 09:56 277 3 gusting 11 12.2
2014-Oct-20 09:46 335 4 gusting 10 11.7
2014-Oct-20 09:36 278 3 gusting 12 11.7
2014-Oct-20 09:26 213 4 gusting 10 11.7
2014-Oct-20 09:16 244 5 gusting 11 11.7
2014-Oct-20 09:06 016 1 gusting 8 11.7
2014-Oct-20 08:56 308 5 gusting 11 11.7
2014-Oct-20 08:46 311 4 gusting 7 11.7
2014-Oct-20 08:36 348 1 gusting 8 11.7
2014-Oct-20 08:26 349 2 gusting 6 11.7
2014-Oct-20 08:16 327 4 gusting 12 11.7
2014-Oct-20 08:06 015 1 gusting 8 11.7
2014-Oct-20 07:56 055 2 gusting 11 11.7
2014-Oct-20 07:46 264 4 gusting 12 11.7
2014-Oct-20 07:36 346 3 gusting 10 11.7
2014-Oct-20 07:26 241 4 gusting 11 11.7
2014-Oct-20 07:16 265 1 gusting 7 11.7
2014-Oct-20 07:06 268 3 gusting 10 11.7
2014-Oct-20 06:56 019 3 gusting 7 11.7
2014-Oct-20 06:46 297 2 gusting 10 11.7
2014-Oct-20 06:36 278 1 gusting 11 11.7
2014-Oct-20 06:26 153 4 gusting 10 11.7
2014-Oct-20 06:16 226 1 gusting 10 11.7
2014-Oct-20 06:06 228 6 gusting 12 11.7
2014-Oct-20 05:56 309 4 gusting 10 11.7
2014-Oct-20 05:46 286 3 gusting 8 11.7
2014-Oct-20 05:36 308 3 gusting 13 11.7
2014-Oct-20 05:26 345 0 gusting 8 11.7
2014-Oct-20 05:16 237 2 gusting 8 11.7
2014-Oct-20 05:06 005 1 gusting 10 11.7
2014-Oct-20 04:56 129 1 gusting 7 11.7
2014-Oct-20 04:46 231 4 gusting 13 11.7
2014-Oct-20 04:36 302 2 gusting 10 11.7
2014-Oct-20 04:26 206 3 gusting 10 11.7
2014-Oct-20 04:16 266 1 gusting 8 11.7
2014-Oct-20 04:06 246 6 gusting 14 11.7
2014-Oct-20 03:56 256 1 gusting 7 11.7
2014-Oct-20 03:46 260 3 gusting 10 11.7
2014-Oct-20 03:36 159 2 gusting 12 11.7
2014-Oct-20 03:26 309 2 gusting 10 11.7
2014-Oct-20 03:16 108 1 gusting 7 12.2
2014-Oct-20 03:06 297 1 gusting 6 12.2